FW2498 Weather Reports


Display with metric or nautical units.
time (UTC)temp
F
wind
direction
speed
MPH
gust
MPH
rain 1hr
in
rain 24hr
in
rain mn
in
humidity
%
barometer
mb
20260507234541 64 310 13.0 24.0 0.00 0.00 0.00 26 1009.8
20260507233039 65 277 13.0 25.0 0.00 0.00 0.00 26 1009.8
20260507231537 64 269 14.0 18.0 0.00 0.00 0.00 25 1009.9
20260507230035 63 274 9.0 18.0 0.00 0.00 0.00 24 1009.7
20260507224539 64 312 14.0 18.0 0.00 0.00 0.00 23 1009.9
20260507223028 63 269 9.0 19.0 0.00 0.00 0.00 23 1009.9
20260507221527 63 235 13.0 22.0 0.00 0.00 0.00 23 1010.3
20260507220023 62 283 5.0 14.0 0.00 0.00 0.00 22 1010.4
20260507214520 61 233 6.0 12.0 0.00 0.00 0.00 22 1010.6
20260507213017 61 317 6.0 11.0 0.00 0.00 0.00 23 1010.8
20260507211515 60 313 7.0 12.0 0.00 0.00 0.00 24 1011.2
20260507210014 60 329 10.0 14.0 0.00 0.00 0.00 22 1011.5
20260507204513 60 336 9.0 14.0 0.00 0.00 0.00 23 1011.6
20260507203015 60 319 12.0 21.0 0.00 0.00 0.00 23 1011.6
20260507201511 60 332 10.0 15.0 0.00 0.00 0.00 23 1011.6
20260507200013 60 349 7.0 17.0 0.00 0.00 0.00 24 1011.7
20260507194510 59 359 8.0 13.0 0.00 0.00 0.00 23 1011.7
20260507193008 60 314 4.0 13.0 0.00 0.00 0.00 23 1011.8
20260507191509 60 349 6.0 14.0 0.00 0.00 0.00 22 1011.9
20260507190005 59 289 7.0 14.0 0.00 0.00 0.00 24 1011.9
20260507184510 60 271 6.0 15.0 0.00 0.00 0.00 23 1012.1
20260507183100 59 269 5.0 15.0 0.00 0.00 0.00 25 1012.2
20260507181559 58 337 8.0 15.0 0.00 0.00 0.00 26 1012.3
20260507180054 58 348 9.0 13.0 0.00 0.00 0.00 25 1012.5
20260507174551 57 13 6.0 11.0 0.00 0.00 0.00 25 1012.6
20260507173053 57 200 3.0 10.0 0.00 0.00 0.00 25 1012.7
20260507171549 58 358 3.0 9.0 0.00 0.00 0.00 25 1012.7
20260507170045 57 12 4.0 8.0 0.00 0.00 0.00 26 1012.8
20260507164541 57 245 2.0 8.0 0.00 0.00 0.00 24 1012.8
20260507163039 57 275 4.0 9.0 0.00 0.00 0.00 25 1013.0
20260507161534 55 51 2.0 5.0 0.00 0.00 0.00 26 1013.2
20260507160037 54 277 3.0 6.0 0.00 0.00 0.00 26 1013.3
20260507154530 53 210 3.0 6.0 0.00 0.00 0.00 27 1013.3
20260507153030 51 129 2.0 7.0 0.00 0.00 0.00 28 1013.3
20260507151519 49 93 1.0 6.0 0.00 0.00 0.00 31 1013.4
20260507150015 48 73 2.0 5.0 0.00 0.00 0.00 33 1013.4
20260507144511 46 101 2.0 5.0 0.00 0.00 0.00 34 1013.4
20260507143006 44 76 1.0 6.0 0.00 0.00 0.00 38 1013.5
20260507141502 42 108 2.0 5.0 0.00 0.00 0.00 40 1013.5
20260507140111 41 106 3.0 5.0 0.00 0.00 0.00 39 1013.5
20260507134555 40 85 2.0 4.0 0.00 0.00 0.00 41 1013.5
20260507133053 37 4 0.0 2.0 0.00 0.00 0.00 44 1013.5
20260507131550 35 325 0.0 2.0 0.00 0.00 0.00 48 1013.5
20260507130048 34 322 0.0 1.0 0.00 0.00 0.00 52 1013.5
20260507124545 33 320 0.0 2.0 0.00 0.00 0.00 56 1013.4
20260507123043 32 250 0.0 0.0 0.00 0.00 0.00 52 1013.5
20260507121540 32 250 0.0 1.0 0.00 0.00 0.00 49 1013.3
20260507120037 31 250 0.0 3.0 0.00 0.00 0.00 47 1013.2
20260507114536 30 226 2.0 4.0 0.00 0.00 0.00 50 1013.3
20260507113036 31 224 3.0 5.0 0.00 0.00 0.00 48 1013.2
20260507111530 32 120 0.0 0.0 0.00 0.00 0.00 46 1013.3
20260507110031 31 120 1.0 3.0 0.00 0.00 0.00 47 1013.3
20260507104534 31 119 1.0 3.0 0.00 0.00 0.00 48 1013.2
20260507103029 31 119 0.0 2.0 0.00 0.00 0.00 47 1013.2
20260507101537 33 114 1.0 2.0 0.00 0.00 0.00 45 1013.3
20260507100030 34 114 0.0 3.0 0.00 0.00 0.00 43 1013.3
20260507094520 34 114 0.0 2.0 0.00 0.00 0.00 42 1013.3
20260507093025 34 114 0.0 0.0 0.00 0.00 0.00 42 1013.2
20260507091536 35 114 0.0 2.0 0.00 0.00 0.00 42 1013.1
20260507090014 35 114 0.0 0.0 0.00 0.00 0.00 41 1013.1
20260507084514 35 114 0.0 2.0 0.00 0.00 0.00 40 1013.4
20260507083015 35 114 2.0 3.0 0.00 0.00 0.00 40 1013.2
20260507081508 36 95 0.0 0.0 0.00 0.00 0.00 39 1013.2
20260507080008 36 95 0.0 0.0 0.00 0.00 0.00 38 1013.3
20260507074509 37 95 0.0 0.0 0.00 0.00 0.00 38 1013.4
20260507073004 37 95 0.0 2.0 0.00 0.00 0.00 37 1013.4
20260507071505 37 95 0.0 2.0 0.00 0.00 0.00 37 1013.3
20260507070139 38 92 3.0 10.0 0.00 0.00 0.00 37 1013.1
20260507064556 38 96 4.0 6.0 0.00 0.00 0.00 36 1013.1
20260507063100 38 108 2.0 4.0 0.00 0.00 0.00 37 1013.2
20260507061552 39 109 3.0 5.0 0.00 0.00 0.00 37 1013.0
20260507060050 39 112 1.0 4.0 0.00 0.00 0.00 37 1013.1
20260507054554 39 113 2.0 6.0 0.00 0.00 0.00 38 1013.1
20260507053049 38 80 0.0 2.0 0.00 0.00 0.00 40 1012.9
20260507051547 38 80 0.0 1.0 0.00 0.00 0.00 39 1013.2
20260507050046 39 80 1.0 5.0 0.00 0.00 0.00 39 1013.1
20260507044548 40 57 1.0 6.0 0.00 0.00 0.00 38 1013.2
20260507043045 36 20 10.0 17.0 0.00 0.00 0.00 44 1013.5
20260507041544 40 263 2.0 3.0 0.00 0.00 0.00 37 1013.3
20260507040048 41 263 2.0 4.0 0.00 0.00 0.00 37 1013.5
20260507034546 41 263 2.0 4.0 0.00 0.00 0.00 36 1013.5
20260507033042 42 263 3.0 4.0 0.00 0.00 0.00 36 1013.5
20260507031543 42 263 3.0 4.0 0.00 0.00 0.00 35 1013.6
20260507030043 44 265 2.0 4.0 0.00 0.00 0.00 34 1013.7
20260507024540 45 265 4.0 5.0 0.00 0.00 0.00 33 1013.6
20260507023040 49 268 3.0 4.0 0.00 0.00 0.00 29 1013.6
20260507021539 51 268 2.0 4.0 0.00 0.00 0.00 27 1013.7
20260507020037 52 266 3.0 6.0 0.00 0.00 0.00 26 1013.9
20260507014550 53 257 3.0 5.0 0.00 0.00 0.00 25 1013.9
20260507013036 53 250 4.0 6.0 0.00 0.00 0.00 25 1014.0
20260507011534 53 264 7.0 12.0 0.00 0.00 0.00 24 1014.0
20260507010032 54 269 6.0 10.0 0.00 0.00 0.00 24 1014.1
20260507004532 54 260 7.0 11.0 0.00 0.00 0.00 23 1014.0
20260507003031 54 235 5.0 13.0 0.00 0.00 0.00 23 1014.2
20260507001528 54 313 8.0 14.0 0.00 0.00 0.00 22 1014.3
20260507000028 54 254 7.0 16.0 0.00 0.00 0.00 22 1014.7